Flag for Montenegro Weather past 2 weeks in Podgorica, Montenegro

Now
79 °F

Passing clouds.


Feels Like: 81 °F
Forecast: 68 / 86 °F
Wind: 6 mph from South

Location: Podgorica Titograd

Current Time: Aug 1, 2014 at 12:15:31 PM

Latest Report: Aug 1, 2014 at 11:30 AM


Visibility: N/A

Pressure: 29.74 "Hg

Humidity: 61%

Dew point: 64 °F

Location of PodgoricaLocation

Historic Weather in Podgorica — Graph

°F

Podgorica temperature yesterday

Maximum temperature yesterday: 82 °F (at 2:00 PM)
Minimum temperature yesterday: 66 °F (at 12:00 AM)
Average temperature yesterday: 73 °F

Past Weeks' High & Low Weather Summary

 TemperatureHumidityPressure
High93 °F (Jul 19, 2:00 PM)100% (Jul 27, 9:00 PM)29.98 "Hg (Jul 27, 9:00 PM)
Low64 °F (Jul 30, 10:30 PM)28% (Jul 19, 2:00 PM)29.68 "Hg (Jul 22, 5:30 PM)
Average78 °F62%29.84 "Hg
* Reported Jul 17 11:00 AM — Aug 1 11:00 AM, Podgorica, Weather by CustomWeather, © 2014

Note: Actual official high and low records may vary slightly from our data, if they occured in-between our weather recording intervals... More about our weather records

Advertising

Podgorica weather history for previous 24 hours

 ConditionsComfort  
Time TempWeatherWind HumidityBarometerVisibility
11:00 AM
Aug 1
79 °FPassing clouds.2 mph58%29.74 "HgN/A
10:30 AM77 °FScattered clouds.2 mph61%29.74 "HgN/A
10:00 AM75 °FScattered clouds.2 mph61%29.74 "HgN/A
9:30 AM73 °FScattered clouds.2 mph65%29.74 "HgN/A
9:00 AM73 °FScattered clouds.5 mph65%29.74 "HgN/A
8:30 AM73 °FScattered clouds.5 mph65%29.74 "HgN/A
8:00 AM73 °FScattered clouds.6 mph65%29.74 "HgN/A
7:30 AM70 °FPassing clouds.7 mph73%29.74 "HgN/A
7:00 AM70 °FPassing clouds.5 mph73%29.74 "HgN/A
6:30 AM66 °FPassing clouds.5 mph83%29.74 "HgN/A
6:00 AM66 °FPassing clouds.6 mph83%29.74 "HgN/A
5:30 AM66 °FPassing clouds.6 mph83%29.74 "HgN/A
5:00 AM68 °FPassing clouds.7 mph83%29.74 "HgN/A
4:30 AM68 °FPassing clouds.6 mph83%29.74 "HgN/A
4:00 AM68 °FPassing clouds.5 mph88%29.74 "HgN/A
3:30 AM68 °FPassing clouds.6 mph83%29.74 "HgN/A
3:00 AM68 °FPassing clouds.6 mph78%29.74 "HgN/A
2:30 AM68 °FPassing clouds.7 mph83%29.77 "HgN/A
2:00 AM68 °FPassing clouds.6 mph78%29.77 "HgN/A
1:30 AM68 °FPassing clouds.6 mph83%29.77 "HgN/A
1:00 AM68 °FPassing clouds.5 mph83%29.77 "HgN/A
12:30 AM68 °FPassing clouds.6 mph88%29.77 "HgN/A
12:00 AM68 °FPassing clouds.3 mph88%29.77 "HgN/A
11:30 PM
Jul 31
70 °FPassing clouds.1 mph78%29.77 "HgN/A
11:00 PM68 °FPassing clouds.5 mph88%29.74 "HgN/A
10:30 PM70 °FPassing clouds.1 mph83%29.74 "HgN/A
10:00 PM72 °FPassing clouds.2 mph78%29.74 "HgN/A
9:30 PM73 °FPassing clouds.5 mph69%29.77 "HgN/A
9:00 PM73 °FPassing clouds.5 mph69%29.74 "HgN/A
8:30 PM73 °FScattered clouds.2 mph69%29.74 "HgN/A
8:00 PM75 °FPassing clouds.2 mph65%29.71 "HgN/A
7:30 PM77 °FPassing clouds.6 mph61%29.71 "HgN/A
7:00 PM79 °FScattered clouds.6 mph51%29.71 "HgN/A
6:30 PM81 °FScattered clouds.5 mph48%29.71 "HgN/A
6:00 PM81 °FScattered clouds.6 mph51%29.71 "HgN/A
5:30 PM81 °FScattered clouds.6 mph51%29.71 "HgN/A
5:00 PM82 °FScattered clouds.6 mph45%29.74 "HgN/A
4:30 PM82 °FScattered clouds.7 mph45%29.74 "HgN/A
4:00 PM82 °FScattered clouds.5 mph45%29.74 "HgN/A
3:30 PM82 °FScattered clouds.7 mph48%29.74 "HgN/A
3:00 PM81 °FScattered clouds.8 mph51%29.74 "HgN/A
2:30 PM82 °FPartly sunny.2 mph48%29.74 "HgN/A
2:00 PM82 °FPartly sunny.3 mph51%29.74 "HgN/A
1:30 PM81 °FPartly sunny.2 mph58%29.74 "HgN/A
1:00 PM79 °FScattered clouds.2 mph61%29.74 "HgN/A
12:30 PM79 °FScattered clouds.2 mph61%29.77 "HgN/A
12:00 PM77 °FScattered clouds.2 mph69%29.77 "HgN/A
Weather by CustomWeather, © 2014

See weather overviewHow to use our weather pages